029  
ASUS43 KJKL 240410  
RWRJKL  
 
EAST KENTUCKY HOURLY WEATHER ROUNDUP  
NATIONAL WEATHER SERVICE JACKSON KY  
1200 AM EDT MON SEP 24 2018  
 
NOTE: "FAIR" INDICATES FEW OR NO CLOUDS BELOW 12,000 FEET WITH  
NO SIGNIFICANT WEATHER AND/OR S TO VISIBILITY
.  
 
* THESE REPORTS ARE NOT UNDER NWS QUALITY CONTROL AND MAY NOT  
REPORT WEATHER SUCH AS PRECIPITATION AND FOG.
 
 
KYZ079-080-083-085-087-088-110-112-115-119-120-240500   
..EASTERN KENTUCKY
 
 
 
CITY SKY/WX TMP DP RH WIND PRES REMARKS
 
JACKSON FOG 64 63 96 CALM 30.13S VSB 1/4  
LONDON LGT RAIN 69 69 100 CALM 30.12R  
SOMERSET* CLOUDY 68 68 100 CALM 30.12R  
MONTICELLO* LGT RAIN 69 69 100 W9 30.12  
WILLIAMSBURG* N/A 68 68 100 CALM 30.12R  
MIDDLESBORO* MOCLDY 68 68 100 CALM 30.14R  
HARLAN APT* CLOUDY 66 66 100 CALM 30.15S VSB 1  
PIKE CO APT* MOCLDY 67 67 100 CALM 30.14S  
BIG SANDY APT* FOG 66 66 100 CALM 30.14S VSB 1/4  
MOREHEAD APT* CLOUDY 63 61 94 CALM 30.15R  
ASHLAND* CLOUDY 64 63 96 CALM 30.14R  

 
 
KYZ035-036-041-042-044-050-067-078-099-240500   
..CENTRAL KENTUCKY
 
 
 
CITY SKY/WX TMP DP RH WIND PRES REMARKS
 
MT STERLING* CLOUDY 63 61 94 E5 30.14S  
FLEMING/MASON* DRIZZLE 61 61 100 NE3 30.15S  
DANVILLE* CLOUDY 64 63 94 CALM 30.12S FOG  
LEXINGTON CLOUDY 65 62 90 E8 30.12R  
FRANKFORT CLOUDY 65 62 90 E6 30.10R  
LOUISVILLE CLOUDY 67 63 87 E6 30.08S  
LEBANON* CLOUDY 64 64 100 E5 30.09S  
GLASGOW* LGT RAIN 69 67 94 CALM 30.07S  
BOWLING GREEN LGT RAIN 71 70 96 S8 30.05F  

 
 
KYZ091>093-OHZ055-061-077-WVZ005-015-034-035-042-240500   
..SOUTHERN OHIO/WEST VIRGINIA
 
 
 
CITY SKY/WX TMP DP RH WIND PRES REMARKS
 
COVINGTON CLOUDY 65 58 78 E12 30.12S  
COLUMBUS MOCLDY 62 56 80 E7 30.15S  
DAYTON CLOUDY 61 51 70 E6 30.15S  
WILMINGTON CLOUDY 62 59 90 E6 30.14S  
HUNTINGTON FOG 65 62 90 NE3 30.12S VSB 3/4  
CHARLESTON MOCLDY 66 66 100 E5 30.14R  
PINEVILLE* MOCLDY 67 65 96 MISG 30.22S  
BECKLEY CLOUDY 62 60 93 SE7 30.22R  
BLUEFIELD CLOUDY 61 61 100 VRB5 30.24R  
LOGAN CO APT* CLOUDY 68 68 100 CALM 30.16R  

 
 
VAZ002-007-008-TNZ017-027-036-066-071-240500   
..SOUTHWEST VIRGINIA/EAST TENNESSEE
 
 
 
CITY SKY/WX TMP DP RH WIND PRES REMARKS
 
WISE* CLOUDY 70 70 100 CALM 30.21S  
ABINGDON* CLOUDY 70 69 98 E5 30.18S  
BRISTOL CLOUDY 69 69 100 CALM 30.15S  
MORRISTOWN* CLOUDY 72 70 94 N6 30.11S  
SEVIERVILLE* CLOUDY 72 70 94 CALM 30.10S  
KNOXVILLE CLOUDY 71 70 96 NE3 30.09R  
LAFOLLETTE* CLOUDY 68 68 100 CALM 30.15S FOG  
OAK RIDGE CLOUDY 71 71 100 CALM 30.12R  
CROSSVILLE CLOUDY 68 66 93 NE5 30.14S  
NASHVILLE LGT RAIN 73 70 90 E6 30.05F  

 
   
..KEY TO REMARKS
 
 
VSB - VISIBILITY IN MILES  
WCI - WIND CHILL INDEX  
HX - HEAT INDEX  
 

 
 
 
CLICK HERE TO GO TO PREVIOUS BULLETINS.

The Nexlab KY Page Main Text Page